Вернуться в каталог

CENTAURI-6

АктивенСвязьVLEO
NORAD 59451·PAYLOAD·🇦🇺 Australia

Запущен Apr 7, 2024 с Cape Canaveral Space Force Station

Loading…

Ближайшие Пролёты (ближайшие 24 часа)

TLE

СвежийSource: Space-Track

Эпоха: Sep 14, 2026, 09:51 UTC

1 59451U 24066K   26257.41053361  .00003493  00000-0  24924-3 0  9990
2 59451  45.6054 148.2528 0001447 219.0263 141.0517 15.06496972133576

Отслеживайте CENTAURI-6 в реальном времени с AllMySat

Download on the App Store